Flag for U.S.A. Weather past 2 weeks in El Paso, Texas, U.S.A.

Now
83 °F

Partly sunny.


Feels Like: 80 °F
Forecast: 65 / 83 °F
Wind: 3 mph from North

Location: El Paso International Airport

Current Time: Mar 30, 2015 at 5:47:05 PM

Latest Report: Mar 30, 2015 at 4:51 PM


Visibility: 10 mi

Pressure: 29.86 "Hg

Humidity: 14%

Dew point: 29 °F

Location of El PasoLocation

Historic Weather in El Paso — Graph

°F

El Paso temperature yesterday

Maximum temperature yesterday: 87 °F (at 3:51 PM)
Minimum temperature yesterday: 53 °F (at 6:51 AM)
Average temperature yesterday: 75 °F

Past Weeks' High & Low Weather Summary

 TemperatureHumidityPressure
High87 °F (Mar 28, 4:51 PM)90% (Mar 17, 1:51 PM)30.19 "Hg (Mar 17, 1:51 PM)
Low47 °F (Mar 22, 6:51 AM)3% (Mar 28, 7:51 PM)29.76 "Hg (Mar 24, 7:51 PM)
Average64 °F38%29.96 "Hg
* Reported Mar 15 4:51 PM — Mar 30 4:51 PM, El Paso, Weather by CustomWeather, © 2015

Note: Actual official high and low records may vary slightly from our data, if they occured in-between our weather recording intervals... More about our weather records

Advertising

El Paso weather history for previous 24 hours

 ConditionsComfort  
Time TempWeatherWind HumidityBarometerVisibility
4:51 PM
Mon, Mar 30
83 °FPartly sunny.N/A14%29.86 "Hg10 mi
3:51 PM81 °FPartly sunny.N/A17%29.88 "Hg10 mi
2:51 PM79 °FMostly cloudy.6 mph20%29.92 "Hg10 mi
1:51 PM77 °FMostly cloudy.6 mph21%29.96 "Hg10 mi
12:51 PM75 °FMostly cloudy.5 mph22%29.97 "Hg10 mi
11:51 AM74 °FMore clouds than sun.3 mph22%29.98 "Hg10 mi
10:51 AM71 °FOvercast.6 mph26%30.01 "Hg10 mi
9:51 AM68 °FMore clouds than sun.6 mph28%30.00 "Hg10 mi
8:51 AM66 °FMore clouds than sun.5 mph31%29.99 "Hg10 mi
7:51 AM62 °FPassing clouds.6 mph37%29.99 "Hg10 mi
6:51 AM63 °FPassing clouds.8 mph33%29.99 "Hg10 mi
5:51 AM63 °FPassing clouds.No wind34%29.96 "Hg10 mi
4:51 AM67 °FMostly cloudy.7 mph29%29.94 "Hg10 mi
3:51 AM68 °FMostly cloudy.7 mph27%29.93 "Hg10 mi
2:51 AM70 °FMostly cloudy.8 mph25%29.95 "Hg10 mi
1:51 AM71 °FMostly cloudy.14 mph20%29.94 "Hg10 mi
12:51 AM77 °FMostly cloudy.No wind10%29.92 "Hg10 mi
11:51 PM
Sun, Mar 29
78 °FPassing clouds.10 mph9%29.93 "Hg10 mi
10:51 PM73 °FPartly cloudy.7 mph13%29.94 "Hg10 mi
9:51 PM78 °FMostly cloudy.No wind9%29.93 "Hg10 mi
8:51 PM80 °FMostly cloudy.6 mph7%29.93 "Hg10 mi
7:51 PM81 °FPartly sunny.6 mph7%29.93 "Hg10 mi
6:51 PM83 °FPartly sunny.13 mph6%29.92 "Hg10 mi
5:51 PM86 °FOvercast.13 mph5%29.88 "Hg10 mi
Weather by CustomWeather, © 2015

See weather overviewHow to use our weather pages